| time (UTC) | temp F | wind direction | speed knots | gust knots | rain 1hr in | rain 24hr in | rain mn in | humidity % | barometer mb |
| 20260504214546 | 58 | 348 | 0.0 | 0.0 | 0.00 | 0.00 | 0.00 | 71 | 1016.5 |
| 20260504214046 | 58 | 348 | 0.0 | 0.0 | 0.00 | 0.00 | 0.00 | 71 | 1016.4 |
| 20260504213547 | 58 | 348 | 0.0 | 0.0 | 0.00 | 0.00 | 0.00 | 70 | 1016.5 |
| 20260504213047 | 59 | 348 | 0.0 | 0.0 | 0.00 | 0.00 | 0.00 | 70 | 1016.4 |
| 20260504212546 | 59 | 348 | 0.0 | 0.0 | 0.00 | 0.00 | 0.00 | 70 | 1016.3 |
| 20260504212047 | 59 | 348 | 0.0 | 0.0 | 0.00 | 0.00 | 0.00 | 70 | 1016.3 |
| 20260504211547 | 59 | 348 | 0.0 | 0.0 | 0.00 | 0.00 | 0.00 | 69 | 1016.3 |
| 20260504211045 | 60 | 348 | 0.0 | 0.0 | 0.00 | 0.00 | 0.00 | 69 | 1016.4 |
| 20260504210545 | 60 | 347 | 0.0 | 0.0 | 0.00 | 0.00 | 0.00 | 68 | 1016.5 |
| 20260504210049 | 60 | 347 | 0.0 | 0.0 | 0.00 | 0.00 | 0.00 | 67 | 1016.5 |
| 20260504205544 | 60 | 347 | 0.0 | 0.0 | 0.00 | 0.00 | 0.00 | 66 | 1016.5 |
| 20260504205044 | 61 | 347 | 0.0 | 0.0 | 0.00 | 0.00 | 0.00 | 66 | 1016.5 |
| 20260504204544 | 61 | 347 | 0.0 | 0.9 | 0.00 | 0.00 | 0.00 | 66 | 1016.4 |
| 20260504204044 | 61 | 347 | 0.0 | 0.9 | 0.00 | 0.00 | 0.00 | 67 | 1016.4 |
| 20260504203544 | 61 | 353 | 0.0 | 0.0 | 0.00 | 0.00 | 0.00 | 67 | 1016.4 |
| 20260504203045 | 61 | 354 | 0.0 | 0.0 | 0.00 | 0.00 | 0.00 | 68 | 1016.4 |
| 20260504202544 | 61 | 354 | 0.0 | 0.0 | 0.00 | 0.00 | 0.00 | 68 | 1016.4 |
| 20260504202046 | 61 | 354 | 0.0 | 0.0 | 0.00 | 0.00 | 0.00 | 68 | 1016.4 |
| 20260504201545 | 61 | 354 | 0.0 | 0.0 | 0.00 | 0.00 | 0.00 | 67 | 1016.5 |
| 20260504201043 | 62 | 354 | 0.0 | 0.0 | 0.00 | 0.00 | 0.00 | 68 | 1016.5 |
| 20260504200543 | 62 | 354 | 0.0 | 0.0 | 0.00 | 0.00 | 0.00 | 66 | 1016.5 |
| 20260504200043 | 62 | 354 | 0.0 | 0.0 | 0.00 | 0.00 | 0.00 | 66 | 1016.5 |
| 20260504195544 | 62 | 281 | 0.0 | 0.9 | 0.00 | 0.00 | 0.00 | 66 | 1016.4 |
| 20260504195043 | 63 | 276 | 0.0 | 0.9 | 0.00 | 0.00 | 0.00 | 66 | 1016.5 |
| 20260504194551 | 63 | 136 | 0.0 | 0.0 | 0.00 | 0.00 | 0.00 | 67 | 1016.4 |
| 20260504194043 | 63 | 136 | 0.0 | 0.9 | 0.00 | 0.00 | 0.00 | 66 | 1016.4 |
| 20260504193547 | 63 | 141 | 0.0 | 0.9 | 0.00 | 0.00 | 0.00 | 65 | 1016.4 |
| 20260504193047 | 63 | 141 | 0.0 | 0.0 | 0.00 | 0.00 | 0.00 | 63 | 1016.4 |
| 20260504192529 | 64 | 141 | 0.0 | 0.0 | 0.00 | 0.00 | 0.00 | 61 | 1016.3 |
| 20260504192030 | 64 | 141 | 0.0 | 0.0 | 0.00 | 0.00 | 0.00 | 60 | 1016.3 |
| 20260504191546 | 64 | 141 | 0.0 | 0.0 | 0.00 | 0.00 | 0.00 | 59 | 1016.3 |
| 20260504191028 | 64 | 141 | 0.0 | 0.0 | 0.00 | 0.00 | 0.00 | 58 | 1016.1 |
| 20260504190528 | 64 | 141 | 0.0 | 0.0 | 0.00 | 0.00 | 0.00 | 58 | 1016.1 |
| 20260504190028 | 64 | 141 | 0.0 | 0.0 | 0.00 | 0.00 | 0.00 | 58 | 1016.1 |
| 20260504185527 | 64 | 141 | 0.0 | 0.9 | 0.00 | 0.00 | 0.00 | 57 | 1016.0 |
| 20260504185027 | 64 | 141 | 0.0 | 0.9 | 0.00 | 0.00 | 0.00 | 57 | 1016.0 |
| 20260504184540 | 65 | 141 | 0.0 | 0.9 | 0.00 | 0.00 | 0.00 | 56 | 1016.0 |
| 20260504184027 | 65 | 141 | 0.0 | 0.9 | 0.00 | 0.00 | 0.00 | 57 | 1016.0 |
| 20260504183527 | 65 | 136 | 0.0 | 0.9 | 0.00 | 0.00 | 0.00 | 56 | 1016.0 |
| 20260504183026 | 65 | 146 | 0.0 | 0.0 | 0.00 | 0.00 | 0.00 | 57 | 1016.0 |
| 20260504182529 | 66 | 146 | 0.0 | 0.0 | 0.00 | 0.00 | 0.00 | 57 | 1015.9 |
| 20260504182026 | 66 | 145 | 0.0 | 0.0 | 0.00 | 0.00 | 0.00 | 58 | 1015.8 |
| 20260504181526 | 66 | 146 | 0.0 | 0.9 | 0.00 | 0.00 | 0.00 | 57 | 1015.8 |
| 20260504181026 | 66 | 146 | 0.0 | 0.9 | 0.00 | 0.00 | 0.00 | 56 | 1015.8 |
| 20260504180526 | 67 | 165 | 0.0 | 0.0 | 0.00 | 0.00 | 0.00 | 56 | 1015.7 |
| 20260504180032 | 67 | 165 | 0.0 | 0.0 | 0.00 | 0.00 | 0.00 | 55 | 1015.7 |
| 20260504175527 | 68 | 125 | 0.0 | 0.0 | 0.00 | 0.00 | 0.00 | 57 | 1015.7 |
| 20260504175025 | 68 | 126 | 0.0 | 0.0 | 0.00 | 0.00 | 0.00 | 56 | 1015.6 |
| 20260504174525 | 68 | 126 | 0.0 | 0.0 | 0.00 | 0.00 | 0.00 | 56 | 1015.6 |
| 20260504174025 | 68 | 153 | 0.0 | 0.0 | 0.00 | 0.00 | 0.00 | 56 | 1015.6 |
| 20260504173524 | 69 | 152 | 0.0 | 0.0 | 0.00 | 0.00 | 0.00 | 56 | 1015.6 |
| 20260504173024 | 69 | 152 | 0.0 | 0.0 | 0.00 | 0.00 | 0.00 | 56 | 1015.6 |
| 20260504172524 | 69 | 143 | 0.0 | 0.9 | 0.00 | 0.00 | 0.00 | 55 | 1015.6 |
| 20260504172024 | 69 | 146 | 0.0 | 1.7 | 0.00 | 0.00 | 0.00 | 55 | 1015.6 |
| 20260504171524 | 69 | 160 | 0.0 | 1.7 | 0.00 | 0.00 | 0.00 | 55 | 1015.5 |
| 20260504171028 | 70 | 131 | 0.0 | 1.7 | 0.00 | 0.00 | 0.00 | 56 | 1015.6 |
| 20260504170527 | 70 | 141 | 0.0 | 2.6 | 0.00 | 0.00 | 0.00 | 56 | 1015.6 |
| 20260504151014 | 74 | 114 | 0.0 | 2.6 | 0.00 | 0.00 | 0.00 | 48 | 1016.0 |
| 20260504150516 | 75 | 46 | 0.0 | 3.5 | 0.00 | 0.00 | 0.00 | 47 | 1016.0 |
| 20260504141010 | 76 | 21 | 0.9 | 5.2 | 0.00 | 0.00 | 0.00 | 46 | 1016.3 |
| 20260504140508 | 75 | 122 | 0.0 | 2.6 | 0.00 | 0.00 | 0.00 | 46 | 1016.3 |
| 20260504130501 | 78 | 283 | 0.0 | 4.3 | 0.00 | 0.00 | 0.00 | 37 | 1016.6 |
| 20260504110551 | 77 | 143 | 0.0 | 5.2 | 0.00 | 0.00 | 0.00 | 34 | 1017.2 |
| 20260504100545 | 77 | 320 | 0.0 | 3.5 | 0.00 | 0.00 | 0.00 | 35 | 1017.5 |
| 20260504081534 | 74 | 120 | 0.0 | 0.0 | 0.00 | 0.00 | 0.00 | 44 | 1017.4 |
| 20260504081034 | 74 | 120 | 0.0 | 0.9 | 0.00 | 0.00 | 0.00 | 46 | 1017.5 |
| 20260504080531 | 73 | 117 | 0.0 | 0.9 | 0.00 | 0.00 | 0.00 | 45 | 1017.4 |
| 20260504050556 | 50 | 120 | 0.0 | 0.0 | 0.00 | 0.00 | 0.00 | 79 | 1017.0 |
| 20260504050113 | 50 | 120 | 0.0 | 0.0 | 0.00 | 0.00 | 0.00 | 80 | 1017.0 |
| 20260504045556 | 49 | 120 | 0.0 | 0.0 | 0.00 | 0.00 | 0.00 | 81 | 1016.9 |
| 20260504045056 | 49 | 120 | 0.0 | 0.0 | 0.00 | 0.00 | 0.00 | 80 | 1017.0 |
| 20260504044557 | 49 | 120 | 0.0 | 0.0 | 0.00 | 0.00 | 0.00 | 80 | 1016.9 |
| 20260504044056 | 49 | 120 | 0.0 | 0.0 | 0.00 | 0.00 | 0.00 | 80 | 1016.9 |
| 20260504043600 | 49 | 120 | 0.0 | 0.0 | 0.00 | 0.00 | 0.00 | 80 | 1016.9 |
| 20260504043104 | 49 | 120 | 0.0 | 0.0 | 0.00 | 0.00 | 0.00 | 80 | 1016.9 |
| 20260504042555 | 49 | 120 | 0.0 | 0.0 | 0.00 | 0.00 | 0.00 | 80 | 1016.9 |
| 20260504042056 | 49 | 120 | 0.0 | 0.0 | 0.00 | 0.00 | 0.00 | 79 | 1016.8 |
| 20260504041555 | 49 | 120 | 0.0 | 0.0 | 0.00 | 0.00 | 0.00 | 79 | 1016.8 |
| 20260504041057 | 49 | 120 | 0.0 | 0.0 | 0.00 | 0.00 | 0.00 | 79 | 1016.7 |
| 20260504040555 | 49 | 120 | 0.0 | 0.0 | 0.00 | 0.00 | 0.00 | 79 | 1016.8 |
| 20260504040055 | 49 | 120 | 0.0 | 0.0 | 0.00 | 0.00 | 0.00 | 79 | 1016.8 |
| 20260504035554 | 49 | 120 | 0.0 | 0.0 | 0.00 | 0.00 | 0.00 | 79 | 1016.7 |
| 20260504035057 | 49 | 120 | 0.0 | 0.0 | 0.00 | 0.00 | 0.00 | 79 | 1016.9 |
| 20260504034604 | 49 | 120 | 0.0 | 0.0 | 0.00 | 0.00 | 0.00 | 79 | 1016.8 |
| 20260504034053 | 49 | 120 | 0.0 | 0.0 | 0.00 | 0.00 | 0.00 | 79 | 1016.8 |
| 20260504033558 | 49 | 120 | 0.0 | 0.0 | 0.00 | 0.00 | 0.00 | 79 | 1016.9 |
| 20260504033058 | 49 | 120 | 0.0 | 0.0 | 0.00 | 0.00 | 0.00 | 79 | 1016.9 |
| 20260504032553 | 49 | 120 | 0.0 | 0.0 | 0.00 | 0.00 | 0.00 | 79 | 1016.9 |
| 20260504032052 | 49 | 120 | 0.0 | 0.9 | 0.00 | 0.00 | 0.00 | 79 | 1016.8 |
| 20260504031605 | 49 | 120 | 0.0 | 0.9 | 0.00 | 0.00 | 0.00 | 79 | 1016.8 |
| 20260504031050 | 49 | 120 | 0.0 | 0.0 | 0.00 | 0.00 | 0.00 | 78 | 1016.9 |
| 20260504030550 | 50 | 120 | 0.0 | 0.0 | 0.00 | 0.00 | 0.00 | 78 | 1016.9 |
| 20260504030110 | 50 | 120 | 0.0 | 0.0 | 0.00 | 0.00 | 0.00 | 78 | 1016.8 |
| 20260504025549 | 50 | 120 | 0.0 | 0.0 | 0.00 | 0.00 | 0.00 | 77 | 1016.9 |
| 20260504025050 | 50 | 120 | 0.0 | 0.0 | 0.00 | 0.00 | 0.00 | 77 | 1016.8 |
| 20260504024551 | 50 | 120 | 0.0 | 0.0 | 0.00 | 0.00 | 0.00 | 77 | 1016.9 |
| 20260504024047 | 50 | 120 | 0.0 | 0.0 | 0.00 | 0.00 | 0.00 | 77 | 1016.9 |
| 20260504023546 | 50 | 120 | 0.0 | 0.0 | 0.00 | 0.00 | 0.00 | 77 | 1017.1 |
| 20260504023046 | 51 | 120 | 0.0 | 0.0 | 0.00 | 0.00 | 0.00 | 77 | 1017.1 |
| 20260504022545 | 51 | 120 | 0.0 | 0.0 | 0.00 | 0.00 | 0.00 | 76 | 1017.1 |
| 20260504022043 | 51 | 120 | 0.0 | 0.0 | 0.00 | 0.00 | 0.00 | 76 | 1017.1 |
| 20260504021544 | 51 | 120 | 0.0 | 0.0 | 0.00 | 0.00 | 0.00 | 76 | 1017.1 |
| 20260504021043 | 51 | 120 | 0.0 | 0.0 | 0.00 | 0.00 | 0.00 | 76 | 1017.1 |
| 20260504020543 | 51 | 120 | 0.0 | 0.0 | 0.00 | 0.00 | 0.00 | 76 | 1017.2 |
| 20260504020044 | 51 | 120 | 0.0 | 0.0 | 0.00 | 0.00 | 0.00 | 75 | 1017.1 |
| 20260504015542 | 51 | 120 | 0.0 | 0.0 | 0.00 | 0.00 | 0.00 | 75 | 1017.1 |
| 20260504015042 | 52 | 120 | 0.0 | 0.0 | 0.00 | 0.00 | 0.00 | 74 | 1017.2 |
| 20260504014542 | 52 | 120 | 0.0 | 0.0 | 0.00 | 0.00 | 0.00 | 73 | 1017.2 |
| 20260504014041 | 52 | 120 | 0.0 | 0.0 | 0.00 | 0.00 | 0.00 | 74 | 1017.2 |
| 20260504013541 | 51 | 120 | 0.0 | 0.0 | 0.00 | 0.00 | 0.00 | 74 | 1017.1 |
| 20260504013042 | 51 | 120 | 0.0 | 0.0 | 0.00 | 0.00 | 0.00 | 75 | 1017.2 |
| 20260504012541 | 51 | 120 | 0.0 | 0.0 | 0.00 | 0.00 | 0.00 | 75 | 1017.2 |
| 20260504012040 | 51 | 120 | 0.0 | 0.0 | 0.00 | 0.00 | 0.00 | 74 | 1017.2 |
| 20260504011539 | 52 | 120 | 0.0 | 0.0 | 0.00 | 0.00 | 0.00 | 74 | 1017.2 |
| 20260504011041 | 52 | 120 | 0.0 | 0.0 | 0.00 | 0.00 | 0.00 | 73 | 1017.1 |
| 20260504010537 | 52 | 120 | 0.0 | 0.0 | 0.00 | 0.00 | 0.00 | 73 | 1017.1 |
| 20260504010037 | 52 | 120 | 0.0 | 0.0 | 0.00 | 0.00 | 0.00 | 74 | 1017.2 |
| 20260504005537 | 52 | 118 | 0.0 | 0.0 | 0.00 | 0.00 | 0.00 | 74 | 1017.1 |
| 20260504005038 | 52 | 118 | 0.0 | 0.0 | 0.00 | 0.00 | 0.00 | 74 | 1017.2 |
| 20260504004536 | 52 | 117 | 0.0 | 0.0 | 0.00 | 0.00 | 0.00 | 73 | 1017.1 |
| 20260504004036 | 53 | 117 | 0.0 | 0.0 | 0.00 | 0.00 | 0.00 | 73 | 1017.2 |
| 20260504003538 | 53 | 117 | 0.0 | 0.0 | 0.00 | 0.00 | 0.00 | 73 | 1017.3 |
| 20260504003042 | 52 | 117 | 0.0 | 0.0 | 0.00 | 0.00 | 0.00 | 73 | 1017.2 |
| 20260504002535 | 53 | 117 | 0.0 | 0.0 | 0.00 | 0.00 | 0.00 | 72 | 1017.2 |
| 20260504002034 | 53 | 117 | 0.0 | 0.0 | 0.00 | 0.00 | 0.00 | 71 | 1017.3 |
| 20260504001535 | 53 | 116 | 0.0 | 0.0 | 0.00 | 0.00 | 0.00 | 71 | 1017.2 |
| 20260504001033 | 53 | 116 | 0.0 | 0.0 | 0.00 | 0.00 | 0.00 | 71 | 1017.2 |
| 20260504000533 | 54 | 117 | 0.0 | 0.0 | 0.00 | 0.00 | 0.00 | 72 | 1017.2 |
| 20260504000033 | 54 | 116 | 0.0 | 0.0 | 0.00 | 0.00 | 0.00 | 72 | 1017.1 |
| 20260503235533 | 53 | 116 | 0.0 | 0.0 | 0.00 | 0.00 | 0.00 | 72 | 1017.2 |
| 20260503235037 | 53 | 119 | 0.0 | 0.0 | 0.00 | 0.00 | 0.00 | 72 | 1017.2 |
| 20260503234534 | 53 | 130 | 0.0 | 0.0 | 0.00 | 0.00 | 0.00 | 73 | 1017.3 |
| 20260503234033 | 53 | 130 | 0.0 | 0.0 | 0.00 | 0.00 | 0.00 | 73 | 1017.2 |
| 20260503233534 | 53 | 130 | 0.0 | 0.0 | 0.00 | 0.00 | 0.00 | 73 | 1017.3 |
| 20260503233038 | 53 | 130 | 0.0 | 0.0 | 0.00 | 0.00 | 0.00 | 74 | 1017.3 |
| 20260503232533 | 53 | 130 | 0.0 | 0.0 | 0.00 | 0.00 | 0.00 | 74 | 1017.3 |
| 20260503232032 | 53 | 130 | 0.0 | 0.0 | 0.00 | 0.00 | 0.00 | 74 | 1017.4 |
| 20260503231531 | 53 | 130 | 0.0 | 0.0 | 0.00 | 0.00 | 0.00 | 73 | 1017.2 |
| 20260503231031 | 53 | 130 | 0.0 | 0.0 | 0.00 | 0.00 | 0.00 | 73 | 1017.3 |
| 20260503230532 | 53 | 130 | 0.0 | 0.0 | 0.00 | 0.00 | 0.00 | 73 | 1017.2 |
| 20260503230030 | 53 | 130 | 0.0 | 0.0 | 0.00 | 0.00 | 0.00 | 73 | 1017.2 |
| 20260503225529 | 53 | 130 | 0.0 | 0.0 | 0.00 | 0.00 | 0.00 | 72 | 1017.3 |
| 20260503225029 | 54 | 130 | 0.0 | 0.0 | 0.00 | 0.00 | 0.00 | 72 | 1017.2 |
| 20260503224530 | 54 | 130 | 0.0 | 0.0 | 0.00 | 0.00 | 0.00 | 72 | 1017.2 |
| 20260503224031 | 54 | 130 | 0.0 | 0.0 | 0.00 | 0.00 | 0.00 | 72 | 1017.3 |
| 20260503223528 | 54 | 130 | 0.0 | 0.0 | 0.00 | 0.00 | 0.00 | 72 | 1017.3 |
| 20260503223027 | 54 | 130 | 0.0 | 0.0 | 0.00 | 0.00 | 0.00 | 71 | 1017.2 |
| 20260503222527 | 54 | 130 | 0.0 | 0.0 | 0.00 | 0.00 | 0.00 | 71 | 1017.2 |
| 20260503222024 | 54 | 130 | 0.0 | 0.0 | 0.00 | 0.00 | 0.00 | 71 | 1017.3 |
| 20260503221524 | 54 | 130 | 0.0 | 0.0 | 0.00 | 0.00 | 0.00 | 71 | 1017.2 |
| 20260503221025 | 54 | 130 | 0.0 | 0.0 | 0.00 | 0.00 | 0.00 | 71 | 1017.1 |
| 20260503220523 | 55 | 130 | 0.0 | 0.0 | 0.00 | 0.00 | 0.00 | 70 | 1017.2 |
| 20260503220023 | 55 | 130 | 0.0 | 0.0 | 0.00 | 0.00 | 0.00 | 70 | 1017.2 |
| 20260503215520 | 55 | 130 | 0.0 | 0.0 | 0.00 | 0.00 | 0.00 | 70 | 1017.2 |
| 20260503215021 | 55 | 130 | 0.0 | 0.0 | 0.00 | 0.00 | 0.00 | 70 | 1017.1 |